Theta_e
350 349 348 345 344 345 343 344 342 341 342 341 340 338 336 337 338 336 337 346 344 344 345 349 351 351 350 348 347 348 348 348 348 347 346 346 345 345 345 344 343 342 341
351 346 347 345 342 342 340 341 341 341 341 341 341 341 339 338 339 342 343 344 344 344 344 347 350 352 350 347 346 346 346 347 347 347 346 345 345 346 344 342 343 342 342
352 350 343 342 340 343 344 343 343 343 341 342 342 341 340 341 342 346 346 343 344 344 345 346 348 351 350 348 345 344 345 347 347 347 347 346 344 344 344 342 344 342 342
351 349 342 341 343 342 341 341 341 342 343 343 344 343 342 344 346 348 348 347 347 347 347 349 348 348 352 350 346 346 344 345 346 346 347 346 344 344 344 343 343 343 342
347 347 341 342 347 341 341 342 343 345 345 345 344 344 344 344 346 346 348 349 350 349 348 348 346 346 349 350 347 345 344 343 346 346 346 346 345 344 343 343 344 342 341
345 345 342 343 343 339 339 344 347 348 347 347 345 343 344 344 346 347 348 349 349 350 351 351 349 345 345 346 347 346 345 343 342 346 346 345 344 344 343 343 343 342 341
346 346 341 343 342 343 344 350 349 348 347 348 344 343 343 345 346 345 347 347 347 349 350 350 349 346 345 344 344 347 344 344 342 340 344 344 343 344 343 344 343 342 341
346 345 347 343 346 341 349 351 351 346 347 349 342 341 336 339 344 346 346 346 347 347 346 347 346 347 347 345 346 343 344 344 343 343 344 343 343 344 344 343 342 341 341
348 348 348 346 349 350 347 352 352 350 344 347 348 342 333 331 339 341 344 341 345 343 343 344 345 346 347 346 344 344 343 343 343 343 343 342 344 344 344 343 342 340 340
350 349 351 352 351 351 356 353 352 351 350 345 345 344 346 343 332 332 338 340 343 343 345 341 342 344 345 345 346 343 340 340 342 342 344 343 344 343 344 344 342 341 340
354 351 352 352 354 352 357 356 353 354 350 347 342 340 343 341 342 335 330 332 338 340 340 340 341 341 344 344 343 342 336 337 338 338 340 341 342 344 345 344 344 342 340
353 355 352 355 357 358 356 354 355 354 352 350 345 346 340 338 336 335 332 331 332 338 340 340 340 340 342 342 342 337 335 333 332 333 334 337 338 342 344 344 343 342 341
345 355 360 359 356 358 357 356 356 355 352 347 350 345 344 342 341 339 334 330 330 333 335 338 339 341 342 341 341 334 334 331 329 329 330 332 336 339 341 343 344 344 342
345 358 361 358 359 357 356 356 353 351 350 348 350 350 343 342 344 341 334 331 327 329 332 336 338 339 340 340 339 334 339 329 327 325 326 328 331 334 336 338 338 339 336
344 351 355 357 357 356 354 357 350 351 351 352 352 351 346 345 343 341 337 336 331 324 325 335 332 341 340 340 338 340 341 329 328 324 323 324 326 329 330 331 332 332 331
348 347 354 356 355 354 354 354 353 354 353 351 350 349 349 346 345 341 339 337 335 330 325 332 333 338 338 339 335 340 338 331 328 324 322 323 322 324 325 326 327 327 329
345 344 350 353 353 351 353 355 357 353 351 350 349 346 347 347 342 338 338 336 334 333 327 334 337 334 335 337 336 339 339 341 336 322 322 321 319 319 321 322 323 324 326
343 341 348 349 348 350 354 354 352 350 349 348 346 346 344 343 343 342 338 339 336 337 331 332 332 331 333 335 333 333 337 339 338 323 321 318 317 317 317 318 319 320 320
342 343 346 347 347 349 352 353 351 350 349 347 346 345 344 343 340 338 338 336 335 335 335 331 331 331 332 330 328 330 332 334 335 323 317 317 316 316 317 316 317 317 315
339 343 346 347 347 349 351 351 351 350 348 347 346 346 342 340 340 339 338 337 337 335 334 332 332 328 329 329 330 325 327 329 327 330 325 324 319 317 316 316 318 317 313
340 344 346 347 348 349 348 350 350 348 347 345 346 342 342 337 329 332 336 338 339 334 334 328 329 326 327 326 326 326 325 327 326 330 329 331 330 334 326 318 321 319 313
343 345 346 346 348 346 316 320 339 347 345 342 340 339 340 328 326 317 315 315 325 337 334 331 332 328 328 328 330 327 323 321 319 327 327 326 331 328 330 330 317 313 310
352 352 351 349 349 350 312 312 319 346 342 340 339 339 337 335 331 335 314 311 312 312 315 336 332 332 331 327 328 326 327 322 322 323 327 322 328 327 328 324 311 310 308
352 352 351 351 350 340 309 310 314 342 341 341 340 340 339 338 336 334 334 332 333 332 331 331 332 333 331 329 331 330 326 327 327 326 330 320 323 322 327 323 308 308 306
351 351 350 350 347 332 306 307 322 340 339 338 339 339 338 337 311 306 332 330 330 329 310 305 308 309 306 309 322 326 321 322 322 322 330 325 320 318 322 322 318 306 304
348 345 346 347 331 335 301 306 321 334 335 335 338 338 308 325 302 302 332 331 325 326 323 319 319 314 312 317 309 334 326 323 322 319 330 327 321 318 316 321 322 321 321
Wind_Speed
9 9 8 7 7 8 8 8 9 8 9 11 11 11 11 11 10 6 6 14 10 12 12 13 14 15 11 12 7 10 11 12 12 13 13 12 12 11 13 13 13 15 15
9 9 9 9 8 8 8 8 8 8 9 9 11 11 10 10 10 9 7 7 13 13 14 14 14 14 13 14 10 8 9 12 12 12 12 12 12 13 14 14 15 16 15
11 11 9 8 8 7 7 7 8 8 8 8 10 9 9 10 10 9 8 7 9 16 14 15 16 15 16 15 12 11 8 10 13 13 11 12 13 12 13 15 15 15 14
14 11 9 8 6 5 8 7 8 8 9 8 8 8 8 8 9 8 8 7 7 6 14 15 15 14 16 16 15 13 10 10 12 12 12 12 14 13 14 13 13 13 13
13 10 8 5 5 7 6 7 7 9 9 8 8 7 6 7 8 8 9 8 8 7 7 14 10 8 14 16 16 11 10 10 12 13 12 12 14 15 16 14 14 13 13
12 11 7 7 9 7 7 8 9 8 10 8 7 6 6 7 7 8 9 8 9 8 9 8 7 10 13 11 14 13 12 11 8 12 13 12 14 16 17 15 15 14 15
14 12 9 12 11 12 9 8 9 12 10 7 7 7 7 9 10 9 8 7 8 8 8 7 6 6 7 12 11 13 15 14 13 11 12 13 14 14 16 17 15 13 11
16 15 14 13 12 8 11 11 12 10 10 8 6 7 7 8 9 9 8 6 7 6 6 8 7 6 7 7 5 14 15 15 15 15 12 14 14 14 14 15 15 14 14
19 18 18 12 12 9 10 11 12 15 10 8 12 7 5 6 3 5 7 6 5 6 4 5 6 6 7 7 5 8 12 13 15 14 15 15 15 14 13 13 16 15 15
19 19 16 15 13 12 10 10 11 14 13 9 8 9 9 7 5 5 5 6 7 5 6 5 4 6 6 7 5 5 11 12 15 12 15 16 17 16 14 14 16 17 17
18 16 16 16 13 11 11 12 13 14 11 9 8 8 9 8 9 8 7 7 7 5 5 5 3 4 6 6 5 6 10 9 10 10 12 17 16 16 15 16 16 17 18
11 16 17 14 13 12 13 13 14 15 13 10 8 8 8 8 8 8 9 8 6 3 2 4 4 5 4 4 5 7 7 8 8 7 8 14 16 15 15 16 17 18 18
11 13 15 14 13 14 14 13 14 13 13 10 10 9 8 8 5 8 7 8 4 4 4 4 3 3 3 4 4 5 10 7 7 8 8 9 15 14 14 14 15 16 17
10 11 13 14 15 16 15 14 12 11 11 10 13 11 7 9 8 7 6 8 5 6 5 5 4 4 4 4 7 4 7 8 7 7 7 8 12 13 13 12 11 11 11
11 12 15 16 16 16 16 14 11 11 11 11 12 11 10 7 6 6 6 7 7 7 5 6 4 2 4 4 4 7 6 11 9 7 8 8 9 11 11 12 10 10 11
12 13 14 16 16 16 14 15 12 13 12 11 9 11 10 7 7 6 7 7 6 7 5 3 3 3 1 4 5 6 3 6 8 8 9 9 9 9 10 9 10 11 14
14 16 16 16 16 17 18 17 14 14 14 13 11 12 12 9 7 6 6 6 6 6 6 4 3 3 3 3 2 1 4 6 7 7 8 9 9 8 9 10 11 15 16
14 16 17 17 18 18 18 17 16 14 15 15 14 14 12 8 9 6 7 7 7 5 7 4 3 4 3 3 1 2 2 3 1 9 7 6 8 9 10 11 13 17 15
16 18 19 19 19 18 18 17 16 15 15 14 14 13 12 10 9 8 8 7 7 6 7 3 5 4 2 3 2 2 2 3 4 8 7 4 4 8 11 13 13 16 16
18 19 19 20 19 19 18 17 16 15 14 13 13 12 10 10 11 10 8 8 7 6 6 5 3 5 5 3 4 4 4 2 4 4 5 4 4 6 9 12 13 16 16
17 19 19 19 19 17 15 18 16 15 15 14 12 10 10 9 3 5 7 9 6 8 4 6 6 4 6 4 6 4 3 3 3 2 5 6 5 7 5 7 8 12 12
19 19 19 20 19 14 16 14 17 16 15 14 12 11 10 7 6 1 2 4 4 7 6 5 6 9 8 8 5 6 5 4 2 0 4 4 5 4 6 7 9 10 11
17 18 18 18 19 14 20 16 13 14 14 12 12 11 10 8 9 10 5 2 3 2 3 5 7 8 7 6 7 8 8 5 4 3 4 2 0 4 5 5 13 13 12
19 17 18 18 17 13 19 18 14 15 11 12 12 12 10 10 10 9 10 10 7 5 4 4 5 4 4 7 7 6 2 2 8 4 4 3 1 2 3 4 9 13 13
17 17 18 19 16 16 18 18 14 13 12 12 11 11 10 9 10 2 8 8 5 5 4 6 6 5 1 6 8 8 4 4 5 3 5 4 2 2 1 2 4 8 10
18 17 16 15 17 21 13 18 12 11 13 10 10 9 8 3 12 9 9 8 7 7 5 3 2 2 3 5 11 11 8 9 5 3 7 5 6 3 2 0 3 5 6
Wind_Direction
213 211 223 235 224 224 214 226 230 227 225 234 240 240 244 247 256 262 260 163 206 239 237 235 244 246 223 217 213 212 207 214 213 213 218 222 214 208 198 197 188 179 185
212 216 215 220 226 230 235 234 230 231 225 236 230 240 239 245 241 247 245 208 193 226 234 234 245 247 224 220 217 218 209 212 215 209 211 217 213 202 201 198 195 193 198
218 219 217 225 234 224 238 241 241 228 244 228 241 235 236 232 243 238 245 243 197 207 222 235 239 247 231 218 212 215 222 218 216 210 206 212 210 208 197 201 210 211 213
225 208 222 212 230 253 234 230 236 237 236 233 237 235 223 232 227 235 239 238 235 255 192 216 235 241 223 219 223 216 218 225 209 210 205 209 211 200 201 205 214 209 205
220 222 234 205 218 238 254 242 243 247 240 242 239 233 230 233 227 225 240 227 236 255 262 166 193 237 217 220 236 226 220 216 199 205 205 205 210 204 209 203 209 204 201
212 199 213 220 206 219 233 240 247 245 255 236 239 233 242 235 234 232 232 235 236 231 243 260 215 213 207 226 240 230 226 204 204 209 201 196 208 210 210 209 206 205 202
207 195 202 205 208 197 203 230 245 242 240 235 236 235 235 230 239 246 234 241 245 222 245 238 247 261 213 199 228 224 225 222 210 219 214 192 206 213 211 205 201 196 199
211 199 201 204 200 192 199 203 225 240 234 213 232 252 258 205 219 225 237 223 240 248 228 234 259 246 256 261 260 199 218 225 223 220 217 188 206 212 208 199 188 188 194
208 205 206 210 190 197 197 203 215 226 230 212 224 240 240 246 159 165 211 231 204 219 227 229 246 242 245 260 209 183 208 215 226 216 201 201 202 211 204 198 189 194 188
214 208 211 200 191 200 198 199 212 225 231 215 198 234 265 315 234 197 204 203 218 221 219 255 221 235 242 237 227 251 195 208 217 214 194 198 199 207 204 196 197 193 188
222 215 199 200 203 214 193 204 210 214 207 232 197 200 220 227 244 275 270 197 187 214 227 221 271 247 199 250 232 213 190 212 205 200 195 187 206 199 201 200 202 200 197
204 214 206 207 210 213 200 197 210 211 221 209 201 220 225 226 227 235 241 251 262 164 240 233 214 230 232 225 230 105 176 199 206 196 204 189 204 196 199 200 203 206 205
232 209 207 199 204 210 204 200 197 206 200 197 208 208 223 239 255 256 252 268 254 193 221 215 242 240 231 236 221 205 172 188 190 188 197 187 186 195 196 198 203 208 207
227 230 205 201 204 200 204 203 195 201 184 195 209 224 210 223 230 246 256 259 206 219 193 272 157 219 222 235 93 162 184 178 193 186 190 182 193 190 193 198 195 198 207
234 224 211 206 197 206 195 188 198 191 174 196 205 205 221 219 224 242 253 260 269 268 203 159 212 140 270 195 136 222 210 166 179 190 188 186 185 191 192 198 187 180 175
228 238 214 206 193 198 189 183 184 181 181 197 205 198 209 205 217 227 242 248 248 266 266 163 177 91 215 268 106 250 108 171 168 179 185 186 192 192 194 189 188 166 169
219 222 213 201 193 190 190 191 181 171 189 193 193 198 197 194 222 211 229 234 226 231 248 150 89 156 169 209 197 225 260 214 159 157 186 185 190 197 186 184 175 160 159
219 217 210 195 191 192 188 187 178 171 192 188 189 203 196 192 214 226 225 229 226 200 260 170 140 186 184 185 158 206 241 251 188 128 164 192 185 189 185 177 171 160 160
213 214 210 199 189 188 185 186 176 178 189 185 186 193 198 191 198 214 228 201 215 221 212 210 156 192 137 146 146 135 168 123 74 109 125 142 183 173 166 159 167 158 152
216 211 207 199 188 181 185 180 177 180 178 181 187 189 192 193 207 209 211 222 229 217 219 211 193 180 173 175 168 166 155 122 119 108 63 100 149 131 154 152 162 157 154
215 208 199 195 183 178 184 176 177 173 174 176 177 181 192 199 169 209 218 208 203 221 195 214 214 187 191 166 195 171 154 134 95 105 134 144 146 157 140 132 147 155 152
208 200 191 187 175 183 149 152 165 169 169 174 173 182 167 156 154 139 336 352 332 242 229 222 198 217 201 192 184 175 158 153 133 317 133 111 151 155 170 165 154 152 160
190 189 182 177 173 170 137 142 153 163 173 169 171 178 184 179 189 193 176 214 246 345 344 288 245 236 197 172 167 179 188 177 130 159 149 91 83 127 151 142 154 157 164
181 176 174 170 168 141 137 142 150 161 159 169 173 178 187 171 196 200 184 198 208 202 226 237 264 234 179 162 189 184 146 114 107 140 197 121 82 79 113 129 152 163 169
170 168 166 164 155 148 144 149 169 158 164 172 176 177 184 181 144 195 196 202 177 165 66 30 23 124 129 213 162 141 150 180 155 172 213 129 126 105 87 129 158 167 169
162 163 150 153 140 150 158 154 173 172 160 164 174 158 58 224 144 174 209 204 197 188 164 149 160 126 198 195 171 185 168 184 170 163 213 174 146 141 132 124 167 181 196